Tracking 28790 objects as of 19-Apr-2024
HD Live streaming from Space Station
objects crossing your sky now

EXPLORER 16

Track EXPLORER 16 now!
10-day predictions
EXPLORER 16 is classified as:


NORAD ID: 506
Int'l Code: 1962-070A
Perigee: 749.3 km
Apogee: 1,154.4 km
Inclination: 52.0 °
Period: 103.9 minutes
Semi major axis: 7322 km
RCS: 0.6378 m2 (medium)
Launch date: December 16, 1962
Source: United States (US)
Launch site: WALLOPS ISLAND (WLPIS)
Your satellite tracking list
Your tracking list is empty




NASA's NSSDC Master Catalog

Two Line Element Set (TLE):
1   506U 62070A   24110.21355108  .00000148  00000-0  18948-3 0  9995
2   506  52.0024 176.0775 0276616 314.8083  43.0647 13.85434367 99819
Source of the keplerian elements: AFSPC